x

Rochester, Ny (rprn6) Weather Station

4:00am - Sun 29th Mar 2015 All times are CDT. -5 hours from GMT.

  • Wind
    9mph, 10mph gusts
  • Air Temp 23°f
  • Sea Pressure 1025.4mb
  • Rochester, Ny
  • Rochester, Ny

More Historic Weather Station data

Upgrade to MSW Pro to gain access to the past 30 days of data for over 8000 Wavebouys and Weather Stations around the globe.

Join Pro

Comparision Forecast

View Surf forecast
   
Sun 03/29 4:00am 9 10 mph 1025.4mb 23f
3:50am 9 13 mph 1025.4mb 23f
3:40am 7 10 mph 1025.4mb 23f
3:30am 7 9 mph 1025.4mb 23f
3:20am 9 10 mph 1025.4mb 23f
3:10am 8 11 mph 1025.4mb 23f
3:00am 9 13 mph 1025.4mb 24f
2:50am 10 13 mph 1025.4mb 24f
2:40am 10 13 mph 1025.4mb 24f
2:30am 10 13 mph 1025.1mb 24f
2:20am 11 14 mph 1025.1mb 24f
2:10am 10 13 mph 1025.1mb 24f
2:00am 9 10 mph 1025.1mb 23f
1:50am 8 10 mph 1025.1mb 23f
1:40am 8 10 mph 1025.4mb 24f
1:30am 8 11 mph 1025.1mb 24f
1:20am 9 11 mph 1025.1mb 24f
1:10am 8 10 mph 1025.1mb 24f
1:00am 9 11 mph 1025.1mb 24f
12:50am 8 10 mph 1025.1mb 24f
12:40am 9 10 mph 1024.7mb 24f
12:30am 9 11 mph 1024.7mb 24f
12:20am 10 13 mph 1025.1mb 25f
12:10am 9 11 mph 1024.7mb 25f
12:00am 9 11 mph 1024.7mb 25f
Sat 03/28 11:50pm 9 11 mph 1024.7mb 25f
11:40pm 8 14 mph 1024.7mb 25f
11:30pm 10 15 mph 1024.7mb 26f
11:20pm 11 14 mph 1024.7mb 26f
11:10pm 10 15 mph 1024.7mb 26f
11:00pm 13 15 mph 1024.4mb 26f
10:50pm 11 15 mph 1024.4mb 26f
10:40pm 13 16 mph 1024.4mb 26f
10:30pm 10 15 mph 1024.4mb 26f
10:20pm 11 15 mph 1024mb 26f
10:10pm 13 15 mph 1024.4mb 26f
10:00pm 10 15 mph 1024mb 26f
9:50pm 11 14 mph 1024mb 26f
9:40pm 11 14 mph 1024mb 26f
9:30pm 10 15 mph 1023.7mb 26f
9:20pm 11 15 mph 1023.7mb 26f
9:10pm 11 14 mph 1023.7mb 26f
9:00pm 10 15 mph 1023.7mb 26f
8:50pm 11 14 mph 1023.4mb 26f
8:40pm 10 15 mph 1023.4mb 26f
8:30pm 10 13 mph 1023.4mb 26f
8:20pm 10 14 mph 1023.4mb 27f
8:10pm 10 15 mph 1023mb 26f
8:00pm 10 13 mph 1023mb 26f
7:50pm 9 14 mph 1023mb 27f
7:40pm 10 14 mph 1022.7mb 27f
7:30pm 9 14 mph 1023mb 27f
7:20pm 10 15 mph 1022.7mb 27f
7:10pm 11 16 mph 1022.7mb 27f
7:00pm 13 17 mph 1022.7mb 27f
6:50pm 14 18 mph 1022.4mb 27f
6:40pm 14 20 mph 1022mb 27f
6:30pm 15 22 mph 1022mb 27f
6:20pm 15 21 mph 1022mb 28f
6:10pm 15 22 mph 1022mb 28f
6:00pm 14 23 mph 1022mb 28f
5:50pm 17 22 mph 1021.7mb 28f
5:40pm 18 23 mph 1021.7mb 27f
5:30pm 18 24 mph 1021.7mb 27f
5:20pm 16 23 mph 1021.7mb 27f
5:10pm 16 25 mph 1021.7mb 27f
5:00pm 22 26 mph 1021.3mb 27f
4:50pm 17 24 mph 1021.3mb 26f
4:40pm 15 24 mph 1021.3mb 26f
4:30pm 17 23 mph 1021.3mb 26f
4:20pm 16 23 mph 1021.3mb 26f
4:10pm 17 23 mph 1021mb 25f
4:00pm 14 21 mph 1021mb 25f
3:50pm 16 21 mph 1021mb 24f
3:40pm 15 18 mph 1021mb 24f
3:30pm 14 21 mph 1021mb 24f
3:20pm 15 21 mph 1021.3mb 24f
3:10pm 15 20 mph 1021.3mb 23f
3:00pm 16 20 mph 1021.3mb 23f
2:50pm 17 21 mph 1021.3mb 23f
2:40pm 16 23 mph 1021.3mb 23f
2:30pm 15 21 mph 1021.7mb 22f
2:20pm 16 22 mph 1021.3mb 22f
2:10pm 17 21 mph 1021.3mb 21f
2:00pm 16 23 mph 1021.7mb 21f
1:50pm 17 20 mph 1021.7mb 21f
1:40pm 15 22 mph 1021.7mb 21f
1:30pm 14 21 mph 1022mb 20f
1:20pm 17 22 mph 1021.7mb 20f
1:10pm 15 21 mph 1021.7mb 20f
1:00pm 16 21 mph 1021.7mb 20f
12:50pm 16 20 mph 1021.7mb 20f
12:40pm 14 22 mph 1021.7mb 19f
12:30pm 16 22 mph 1021.7mb 19f
12:20pm 15 20 mph 1021.7mb 19f
12:10pm 14 20 mph 1022mb 19f
12:00pm 16 21 mph 1022mb 19f
11:50am 15 20 mph 1021.7mb 18f
11:40am 15 20 mph 1022mb 19f
11:30am 14 18 mph 1022mb 18f
11:20am 11 18 mph 1022mb 18f
11:10am 16 18 mph 1022mb 18f
11:00am 14 21 mph 1022mb 18f
10:50am 15 18 mph 1022mb 17f
10:40am 14 20 mph 1022mb 17f
10:30am 15 18 mph 1022mb 17f
10:20am 14 20 mph 1022mb 17f
10:10am 11 20 mph 1022mb 17f
10:00am 16 21 mph 1022mb 17f
9:50am 13 20 mph 1021.7mb 17f
9:40am 15 23 mph 1022mb 17f
9:30am 13 21 mph 1021.7mb 17f
9:20am 14 22 mph 1021.7mb 18f
9:10am 17 21 mph 1021.7mb 17f
9:00am 17 23 mph 1021.3mb 18f
8:50am 14 22 mph 1021.3mb 17f
8:40am 17 23 mph 1021.3mb 18f
8:30am 20 24 mph 1021mb 18f
8:20am 17 22 mph 1020.7mb 18f
8:10am 15 22 mph 1020.7mb 18f
8:00am 17 21 mph 1020.7mb 19f
7:50am 13 20 mph 1020.3mb 18f
7:40am 17 22 mph 1020.3mb 19f
7:30am 14 22 mph 1020.3mb 19f
7:20am 16 22 mph 1020.3mb 19f
7:10am 17 21 mph 1019.6mb 19f
7:00am 15 24 mph 1019.6mb 19f
6:50am 16 21 mph 1019.6mb 19f
6:40am 15 25 mph 1019.3mb 19f
6:30am 18 21 mph 1019.3mb 19f
6:20am 15 20 mph 1019.3mb 20f
6:10am 16 20 mph 1019mb 20f
6:00am 15 21 mph 1019mb 20f
5:50am 15 20 mph 1018.6mb 20f
5:40am 15 18 mph 1018.6mb 20f
5:30am 13 20 mph 1018.6mb 20f
5:20am 15 20 mph 1018.6mb 20f
5:10am 15 21 mph 1018.3mb 20f
5:00am 14 18 mph 1018.3mb 20f
4:50am 17 21 mph 1018.3mb 21f
4:40am 18 23 mph 1018.3mb 21f
4:30am 16 23 mph 1017.6mb 21f
4:20am 17 24 mph 1017.9mb 22f
4:10am 17 22 mph 1017.6mb 22f
4:00am 20 23 mph 1017.6mb 22f
3:50am 17 24 mph 1017.6mb 22f
3:40am 18 25 mph 1017.3mb 22f
3:30am 17 23 mph 1017.3mb 22f
3:20am 18 24 mph 1017.3mb 23f
3:10am 17 23 mph 1017.3mb 23f
3:00am 18 23 mph 1017.3mb 23f
2:50am 17 22 mph 1016.9mb 24f
2:40am 20 25 mph 1016.9mb 24f
2:30am 20 25 mph 1016.9mb 24f
2:20am 18 22 mph 1016.9mb 24f
2:10am 18 23 mph 1016.9mb 24f
2:00am 18 21 mph 1016.9mb 25f
1:50am 13 15 mph 1016.9mb 25f
1:40am 11 17 mph 1016.9mb 25f
1:30am 14 16 mph 1016.9mb 25f
1:20am 11 15 mph 1017.3mb 25f
1:10am 10 16 mph 1017.3mb 25f
1:00am 11 16 mph 1017.3mb 25f
12:50am 11 17 mph 1017.3mb 25f
12:40am 13 18 mph 1016.9mb 25f
12:30am 11 16 mph 1017.3mb 25f
12:20am 11 16 mph 1017.3mb 25f
12:10am 13 17 mph 1017.3mb 24f
12:00am 13 17 mph 1017.3mb 24f
Fri 03/27 11:50pm 17 18 mph 1016.9mb 24f
11:40pm 14 16 mph 1016.9mb 24f
11:30pm 15 17 mph 1016.9mb 24f
11:20pm 13 15 mph 1016.9mb 24f
11:10pm 14 17 mph 1016.9mb 24f
11:00pm 13 16 mph 1016.9mb 24f
10:50pm 15 17 mph 1016.9mb 24f
10:40pm 13 18 mph 1016.9mb 24f
10:30pm 14 17 mph 1016.6mb 24f
10:20pm 15 17 mph 1016.6mb 24f
10:10pm 16 18 mph 1016.6mb 24f
10:00pm 17 21 mph 1016.3mb 24f
9:50pm 17 20 mph 1016.3mb 24f
9:40pm 18 21 mph 1015.9mb 24f
9:30pm 15 20 mph 1016.3mb 24f
9:20pm 6 11 mph 1016.3mb 26f
9:10pm 6 10 mph 1016.3mb 26f
9:00pm 8 16 mph 1015.9mb 26f
8:50pm 14 18 mph 1015.9mb 27f
8:40pm 11 18 mph 1015.9mb 27f
8:30pm 13 17 mph 1015.6mb 27f
8:20pm 14 17 mph 1015.6mb 27f
8:10pm 14 20 mph 1015.2mb 27f
8:00pm 14 20 mph 1015.2mb 27f
7:50pm 13 17 mph 1015.2mb 27f
7:40pm 14 17 mph 1015.2mb 27f
7:30pm 13 17 mph 1014.9mb 27f
7:20pm 14 20 mph 1014.6mb 27f
7:10pm 14 17 mph 1014.9mb 27f
7:00pm 13 16 mph 1014.6mb 27f
6:50pm 13 20 mph 1014.6mb 27f
6:40pm 14 18 mph 1014.6mb 27f
6:30pm 14 20 mph 1014.6mb 28f
6:20pm 15 20 mph 1014.2mb 28f
6:10pm 15 17 mph 1014.2mb 28f
6:00pm 14 20 mph 1014.2mb 28f
5:50pm 16 20 mph 1013.9mb 28f
5:40pm 16 20 mph 1013.9mb 28f
5:30pm 16 20 mph 1013.9mb 29f
5:20pm 15 20 mph 1013.9mb 29f
5:10pm 16 20 mph 1013.5mb 29f
5:00pm 16 20 mph 1013.2mb 29f
4:50pm 16 20 mph 1013.2mb 29f
4:40pm 16 21 mph 1012.9mb 29f
4:30pm 17 21 mph 1012.9mb 29f
4:20pm 17 22 mph 1012.5mb 29f
4:10pm 17 20 mph 1012.9mb 29f
4:00pm 16 20 mph 1012.9mb 30f
3:50pm 16 20 mph 1012.5mb 30f
3:40pm 16 21 mph 1012.5mb 30f
3:30pm 15 18 mph 1012.5mb 30f
3:20pm 15 18 mph 1012.5mb 30f
3:10pm 17 20 mph 1012.5mb 30f
3:00pm 14 20 mph 1012.5mb 30f
2:50pm 16 21 mph 1012.2mb 30f
2:40pm 17 20 mph 1012.2mb 30f
2:30pm 16 21 mph 1012.2mb 30f
2:20pm 16 23 mph 1012.2mb 30f
2:10pm 17 22 mph 1012.2mb 31f
2:00pm 18 23 mph 1011.9mb 30f
1:50pm 18 23 mph 1012.2mb 30f
1:40pm 20 23 mph 1011.9mb 30f
1:30pm 18 22 mph 1011.9mb 30f
1:20pm 20 23 mph 1012.2mb 30f
1:10pm 18 22 mph 1012.2mb 31f
1:00pm 20 22 mph 1012.2mb 31f
12:50pm 20 24 mph 1012.2mb 30f
12:40pm 20 24 mph 1012.2mb 31f
12:30pm 20 25 mph 1011.9mb 31f
12:20pm 21 24 mph 1011.9mb 31f
12:10pm 17 24 mph 1012.2mb 31f
12:00pm 20 24 mph 1011.9mb 31f
11:50am 21 25 mph 1011.5mb 31f
11:40am 15 21 mph 1011.9mb 32f
11:30am 17 22 mph 1011.5mb 32f
11:20am 17 22 mph 1011.9mb 32f
11:10am 10 16 mph 1011.5mb 32f
11:00am 15 21 mph 1011.5mb 31f
10:50am 16 22 mph 1011.5mb 31f
10:40am 18 22 mph 1011.5mb 32f
10:30am 17 20 mph 1011.5mb 32f
10:20am 13 21 mph 1012.2mb 32f
10:10am 18 22 mph 1011.9mb 32f
10:00am 16 20 mph 1012.2mb 32f
9:50am 17 21 mph 1011.9mb 32f
9:40am 16 22 mph 1011.5mb 32f
9:30am 20 24 mph 1011.5mb 32f
9:20am 20 24 mph 1011.5mb 33f
9:10am 13 15 mph 1011.5mb 34f
9:00am 10 15 mph 1011.5mb 34f
8:50am 10 16 mph 1011.2mb 33f
8:40am 11 16 mph 1011.2mb 33f
8:30am 13 16 mph 1011.2mb 33f
8:20am 11 17 mph 1011.2mb 34f
8:10am 13 18 mph 1011.2mb 34f
8:00am 17 21 mph 1011.2mb 34f
7:50am 16 20 mph 1010.8mb 34f
7:40am 11 15 mph 1010.8mb 34f
7:30am 9 15 mph 1010.8mb 34f
7:20am 9 13 mph 1010.8mb 34f
7:10am 9 11 mph 1010.8mb 34f
7:00am 9 13 mph 1010.8mb 34f
6:50am 9 11 mph 1010.8mb 34f
6:40am 8 10 mph 1010.8mb 34f
6:30am 6 8 mph 1010.8mb 34f
6:20am 7 8 mph 1011.2mb 34f
6:10am 7 8 mph 1010.8mb 34f
6:00am 8 9 mph 1010.8mb 34f
5:50am 7 9 mph 1010.8mb 34f
5:40am 7 11 mph 1010.8mb 34f
5:30am 8 10 mph 1010.8mb 34f
5:20am 7 10 mph 1011.2mb 35f
5:10am 8 11 mph 1010.8mb 35f
5:00am 8 11 mph 1010.8mb 35f
4:50am 8 14 mph 1010.8mb 35f
4:40am 9 11 mph 1010.5mb 35f
4:30am 10 15 mph 1010.2mb 35f
4:20am 8 13 mph 1010.5mb 35f
4:10am 10 14 mph 1010.5mb 35f
4:00am 9 11 mph 1010.8mb 35f
3:50am 9 11 mph 1010.5mb 35f
3:40am 9 15 mph 1010.5mb 35f
3:30am 9 11 mph 1010.8mb 35f
3:20am 9 13 mph 1010.2mb 35f
3:10am 9 13 mph 1010.5mb 35f
3:00am 8 11 mph 1010.2mb 35f
2:50am 8 10 mph 1010.2mb 36f
2:40am 7 11 mph 1010.2mb 36f
2:30am 8 9 mph 1010.2mb 36f
2:20am 7 9 mph 1010.2mb 36f
2:10am 8 9 mph 1010.2mb 36f
2:00am 7 9 mph 1010.2mb 36f
1:50am 7 9 mph 1009.8mb 36f
1:40am 7 8 mph 1009.8mb 36f
1:30am 7 8 mph 1010.2mb 36f
1:20am 6 8 mph 1010.5mb 36f
1:10am 6 7 mph 1010.2mb 36f
1:00am 6 8 mph 1010.2mb 36f
12:50am 7 9 mph 1010.8mb 36f
12:40am 7 9 mph 1010.5mb 36f
12:30am 8 10 mph 1010.8mb 36f
12:20am 9 14 mph 1010.2mb 36f
12:10am 11 14 mph 1010.2mb 36f
12:00am 11 14 mph 1010.2mb 36f
Thu 03/26 11:50pm 10 13 mph 1010.5mb 36f
11:40pm 11 15 mph 1010.2mb 37f
11:30pm 9 14 mph 1010.2mb 37f
11:20pm 10 14 mph 1010.2mb 37f
11:10pm 10 16 mph 1010.2mb 37f
11:00pm 9 11 mph 1010.2mb 37f
10:50pm 10 13 mph 1010.2mb 37f
10:40pm 9 11 mph 1010.5mb 37f
10:30pm 7 11 mph 1010.2mb 37f
10:20pm 9 13 mph 1010.5mb 37f
10:10pm 8 10 mph 1010.5mb 36f
10:00pm 9 13 mph 1010.5mb 37f
9:50pm 9 11 mph 1010.8mb 36f
9:40pm 8 11 mph 1010.2mb 37f
9:30pm 9 11 mph 1010.5mb 36f
9:20pm 8 11 mph 1010.8mb 36f
9:10pm 9 11 mph 1010.8mb 36f
9:00pm 8 10 mph 1010.5mb 36f
8:50pm 8 9 mph 1010.8mb 36f
8:40pm 6 8 mph 1010.8mb 36f
8:30pm 6 7 mph 1010.8mb 36f
8:20pm 5 6 mph 1010.8mb 36f
8:10pm 5 6 mph 1010.8mb 36f
8:00pm 5 7 mph 1010.8mb 36f
7:50pm 3 5 mph 1010.5mb 36f
7:40pm 3 6 mph 1010.5mb 36f
7:30pm 5 6 mph 1010.5mb 36f
7:20pm 5 7 mph 1010.2mb 36f
7:10pm 6 7 mph 1010.2mb 36f
7:00pm 5 6 mph 1010.5mb 35f
6:50pm 3 5 mph 1010.5mb 35f
6:40pm  -  6 mph 1010.2mb 33f
6:30pm 6 7 mph 1009.8mb 33f
6:20pm 7 8 mph 1009.8mb 33f
6:10pm 6 7 mph 1009.8mb 33f
6:00pm  -  mph 1010.2mb 33f
5:50pm  -  mph 1010.2mb 33f
5:40pm  -  mph 1010.2mb 33f
5:30pm  -  mph 1010.2mb 33f
5:20pm  -  mph 1010.2mb 33f
5:10pm  -  mph 1009.8mb 33f
5:00pm  -  mph 1009.8mb 33f
4:50pm  -  mph 1009.8mb 32f
4:40pm  -  3 mph 1009.8mb 33f
4:30pm 3 5 mph 1009.5mb 32f
4:20pm 2 3 mph 1009.8mb 33f
4:10pm 1 2 mph 1009.1mb 33f
4:00pm  -  1 mph 1009.1mb 33f
3:50pm 1 2 mph 1009.5mb 33f
3:40pm 2 3 mph 1009.5mb 32f
3:30pm 2 3 mph 1009.5mb 33f
3:20pm 3
mph
1009.5mb 32f
3:10pm 2 3 mph 1009.5mb 32f
3:00pm 2 5 mph 1009.5mb 32f
2:50pm 5
mph
1009.5mb 32f
2:40pm  -  mph 1009.5mb 33f
2:30pm  -  mph 1009.5mb 33f
2:20pm  -  mph 1009.5mb 33f
2:10pm  -  mph 1009.5mb 33f
2:00pm  -  2 mph 1009.5mb 32f
1:50pm 2
mph
1009.5mb 32f
1:40pm  -  mph 1009.8mb 32f
1:30pm  -  mph 1009.8mb 33f
1:20pm  -  mph 1009.8mb 33f
1:10pm  -  mph 1009.8mb 33f
1:00pm  -  mph 1009.8mb 33f
12:50pm  -  mph 1010.2mb 33f
12:40pm  -  mph 1010.2mb 33f
12:30pm 83
mph
1010.2mb 33f
12:20pm  -  mph 1010.2mb 33f
12:10pm  -  mph 1010.5mb 32f
12:00pm  -  mph 1010.5mb 32f
11:50am 24
mph
1010.5mb 32f
11:40am 3 6 mph 1010.8mb 32f
11:30am 6 7 mph 1011.2mb 33f
11:20am 6 7 mph 1011.2mb 33f
11:10am 6 8 mph 1011.5mb 33f
11:00am 8 9 mph 1011.5mb 34f
10:50am 7
mph
1011.9mb 35f
10:40am 5 7 mph 1011.9mb 35f
10:30am 6 8 mph 1011.9mb 35f
10:20am 7
mph
1011.9mb 36f
10:10am 7 8 mph 1011.9mb 37f
9:00am 9 11 mph 1012.2mb 39f
8:50am 9 13 mph 1012.5mb 40f
8:40am 8 9 mph 1012.9mb 41f
8:30am 5 6 mph 1012.9mb 41f
8:20am 3 5 mph 1012.5mb 41f
8:10am 3 5 mph 1012.9mb 41f
8:00am 3 7 mph 1012.9mb 41f
7:50am 6 8 mph 1013.5mb 41f
7:40am 3 5 mph 1013.2mb 41f
7:30am  -  mph 1013.2mb 41f
7:20am  -  3 mph 1013.5mb 41f
7:10am 3 5 mph 1013.5mb 41f
7:00am 5 6 mph 1013.5mb 41f
6:50am 2
mph
1013.5mb 41f
6:40am  -  2 mph 1013.2mb 41f
6:30am 2 3 mph 1013.2mb 41f
6:20am  -  2 mph 1012.9mb 41f
6:10am  -  1 mph 1012.9mb 42f
6:00am 1 5 mph 1012.9mb 42f
5:50am 5 8 mph 1013.2mb 42f
5:40am 3 7 mph 1013.5mb 42f
5:30am 5 10 mph 1013.9mb 42f
5:20am 5 6 mph 1013.9mb 42f
5:10am 5 9 mph 1014.2mb 42f
5:00am 9 14 mph 1014.2mb 42f
4:50am 9 11 mph 1014.6mb 42f
4:40am 8 13 mph 1014.6mb 42f
4:30am 9 13 mph 1014.6mb 42f
4:20am 9 16 mph 1014.6mb 43f
4:10am 9 13 mph 1014.6mb 43f
4:00am 7 10 mph 1014.6mb 42f
3:50am 6 7 mph 1014.6mb 42f
3:40am 6 9 mph 1014.2mb 42f
3:30am 8 15 mph 1014.9mb 42f
3:20am 13 15 mph 1014.9mb 41f
3:10am 13 15 mph 1014.6mb 42f
3:00am 10 13 mph 1014.2mb 44f
2:50am 11 15 mph 1014.9mb 45f
2:40am 10 13 mph 1014.6mb 45f
2:30am 8 15 mph 1014.2mb 46f
2:20am 9 14 mph 1014.6mb 46f
2:10am 9 15 mph 1014.6mb 46f
2:00am 7 10 mph 1014.6mb 46f
1:50am 7 11 mph 1014.6mb 46f
1:40am 6 10 mph 1014.6mb 45f
1:30am 8 11 mph 1014.6mb 45f
1:20am 8 13 mph 1014.6mb 45f
1:10am 7 9 mph 1014.2mb 45f
1:00am 7 10 mph 1014.2mb 45f
12:50am 8 9 mph 1014.2mb 44f
12:40am 6 11 mph 1014.2mb 45f
12:30am 8 10 mph 1014.2mb 45f
12:20am 7 9 mph 1014.2mb 45f
12:10am 6 8 mph 1014.2mb 44f
12:00am 5 8 mph 1014.6mb 45f
Wed 03/25 11:50pm 2 6 mph 1014.6mb 44f
11:40pm 5 9 mph 1014.6mb 44f
11:30pm 7 11 mph 1014.2mb 44f
11:20pm 9 13 mph 1014.2mb 44f
11:10pm 9 13 mph 1013.9mb 45f
11:00pm 9 16 mph 1013.5mb 45f
10:50pm 11 15 mph 1013.9mb 45f
10:40pm 10 14 mph 1013.9mb 45f
10:30pm 10 15 mph 1014.2mb 45f
10:20pm 9 15 mph 1014.2mb 45f
10:10pm 9 13 mph 1014.6mb 45f
10:00pm 9 13 mph 1014.6mb 45f
9:50pm 11 14 mph 1014.9mb 45f
9:40pm 10 15 mph 1014.9mb 45f
9:30pm 10 13 mph 1014.9mb 46f
9:20pm 9 11 mph 1014.9mb 45f
9:10pm 8 11 mph 1014.9mb 45f
9:00pm 8 11 mph 1014.9mb 45f
8:50pm 5 10 mph 1014.9mb 45f
8:40pm 8 11 mph 1014.9mb 45f
8:30pm 8 11 mph 1014.9mb 45f
8:20pm 8 15 mph 1014.9mb 45f
8:10pm 9 15 mph 1014.9mb 45f
8:00pm 9 17 mph 1014.6mb 45f
7:50pm 13 18 mph 1014.6mb 45f
7:40pm 13 18 mph 1014.6mb 45f
7:30pm 11 18 mph 1014.6mb 45f
7:20pm 11 17 mph 1014.6mb 45f
7:10pm 13 18 mph 1014.2mb 45f
7:00pm 10 17 mph 1014.2mb 45f
6:50pm 13 23 mph 1014.2mb 45f
6:40pm 14 22 mph 1014.2mb 45f
6:30pm 14 20 mph 1014.2mb 45f
6:20pm 14 20 mph 1014.2mb 45f
6:10pm 16 25 mph 1014.2mb 45f
6:00pm 13 21 mph 1014.2mb 45f
5:50pm 14 23 mph 1013.9mb 45f
5:40pm 15 24 mph 1014.2mb 45f
5:30pm 17 22 mph 1013.9mb 45f
5:20pm 17 25 mph 1013.9mb 44f
5:10pm 17 25 mph 1013.9mb 44f
5:00pm 18 30 mph 1013.9mb 44f
4:50pm 17 28 mph 1013.9mb 44f
4:40pm 17 25 mph 1013.9mb 44f
4:30pm 16 25 mph 1013.9mb 43f
4:20pm 17 28 mph 1013.9mb 43f
4:10pm 22 32 mph 1013.9mb 43f
4:00pm 23 30 mph 1013.5mb 44f
3:50pm 23 33 mph 1013.9mb 44f
3:40pm 20 34 mph 1013.5mb 45f
3:30pm 22 37 mph 1013.5mb 45f
3:20pm 18 28 mph 1013.5mb 46f
3:10pm 17 24 mph 1013.5mb 45f
3:00pm 18 23 mph 1013.5mb 45f
2:50pm 20 23 mph 1013.5mb 44f
2:40pm 16 24 mph 1013.2mb 43f
2:30pm 18 22 mph 1013.5mb 43f
2:20pm 18 23 mph 1013.5mb 43f
2:10pm 16 21 mph 1013.5mb 42f
12:00pm 16 30 mph 1016.3mb 48f
11:50am 16 21 mph 1016.3mb 49f
11:40am 18 24 mph 1016.6mb 49f
11:30am 21 30 mph 1016.6mb 48f
11:20am 21 32 mph 1017.3mb 47f
11:10am 24 33 mph 1017.6mb 47f
11:00am 16 22 mph 1017.6mb 46f
10:50am 16 21 mph 1018.3mb 45f
10:40am 13 16 mph 1018.6mb 44f
10:30am 14 18 mph 1018.6mb 43f